sat.trackr.live / text

‹ back to catalog

STARLINK-33721

NORAD 63480 · 2025-070W

PAYLOAD ACTIVE UNKNOWN

§ Identity

Operator
Country
US
Launch date
2025-04-06
Launch site
AFETR
Launch vehicle
Mass (kg)
RCS (m²)

Purposes: comms

External: N2YO · Heavens-Above · Gunter

§ Orbital elements

Epoch: 2026-09-20T07:30:08.527680Z

Period
94.27 min
Inclination
42.9981°
Eccentricity
0.0000778
Mean motion
15.27539560 rev/d
Perigee alt
482.6 km
Apogee alt
483.7 km
Semi-major
6,861.3 km
B*
3.8325e-5
RAAN
236.9994°
Arg perigee
194.5546°
Mean anomaly
165.5283°
Rev number
8,278

§ Raw data

STARLINK-337211 63480U 25070W   26263.31259870  .00000792  00000+0  38325-4 0  99912 63480  42.9981 236.9994 0000778 194.5546 165.5283 15.27539560 82782

JSON: /api/v1/satellites/63480 · /tle

For live sub-satellite position, see the globe view (requires WebGL).

§ Visibility from observer

Set your observer location to see the next 7 days of passes ≥ 10°. The values pass through the URL so the page stays shareable.

No JS? Fill the form by hand. The geolocation button needs JavaScript.